Volver al catálogo

STARLINK-32685

ActivoComunicacionesVLEO
NORAD 62500·PAYLOAD·🇺🇸 United States

Lanzado Jan 6, 2025 desde Cape Canaveral Space Force Station

Loading…

Próximos Pases (próximas 24 horas)

TLE

ActualizadoSource: CelesTrak SupGP

Época: Sep 15, 2026, 02:51 UTC

1 62500C 25003P   26258.11923611  .00021302  00000+0  77151-3 0  2589
2 62500  43.0003 299.4270 0001256 262.6090 305.2818 15.27569556    16

Sigue STARLINK-32685 en tiempo real con AllMySat

Download on the App Store